This demonstration page uses our WeatherBlox Daily Observations layout. Learn more.

Left ArrowRight Arrow

40.92501, -98.34201

Hourly Observations for August 13, 2022

Temp ( °F °C ) Dew Point ( °F °C ) Humidity (%) Winds ( mph kmh ) Pressure ( in mb ) Visibility ( mi km ) Precip ( " mm )
12:53 am 00:53 Clear 79 26.1 54 12.2 42 42 S 16 26 29.95 1014 10 16 0.00 0.00
1:53 am 01:53 Clear 79 26.1 56 13.3 45 45 S 16 26 29.95 1014 10 16 0.00 0.00
2:53 am 02:53 Clear 79 26.1 55 12.8 44 44 SSW 14 22 29.95 1014 10 16 0.00 0.00
3:53 am 03:53 Clear 74 23.3 55 12.8 52 52 SW 9 15 29.97 1015 10 16 0.00 0.00
4:53 am 04:53 Clear 69 20.6 57 13.9 65 65 Calm 30.00 1016 10 16 0.00 0.00
5:53 am 05:53 Cloudy 69 20.6 59 15 70 70 SSW 3 6 30.00 1016 10 16 0.00 0.00
6:53 am 06:53 Sunny 73 22.8 55 12.8 53 53 SW 8 13 29.98 1015 10 16 0.00 0.00
7:53 am 07:53 Sunny 77 25 56 13.3 48 48 SW 14 22 29.96 1015 10 16 0.00 0.00
8:53 am 08:53 Mostly Sunny 74 23.3 59 15 60 60 NW 8 13 30.00 1016 10 16 0.00 0.00
9:53 am 09:53 Sunny 81 27.2 59 15 47 47 NW 6 9 30.00 1016 10 16 0.00 0.00
10:53 am 10:53 Sunny 82 27.8 60 15.6 47 47 N 8 13 30.00 1016 10 16 0.00 0.00
11:53 am 11:53 Mostly Sunny 83 28.3 65 18.3 55 55 NNE 7 11 30.01 1016 10 16 0.00 0.00
12:53 pm 12:53 Partly Cloudy 85 29.4 69 20.6 59 59 NE 8 13 30.01 1016 10 16 0.00 0.00
1:53 pm 13:53 Sunny 88 31.1 69 20.6 54 54 NE 10 17 30.00 1016 10 16 0.00 0.00
2:53 pm 14:53 Sunny 90 32.2 70 21.1 52 52 NE 12 19 29.98 1015 10 16 0.00 0.00
3:53 pm 15:53 Sunny 89 31.7 67 19.4 48 48 ENE 9 15 29.99 1016 10 16 0.00 0.00
4:53 pm 16:53 Sunny 87 30.6 69 20.6 55 55 NNE 13 20 30.00 1016 10 16 0.00 0.00
5:53 pm 17:53 Sunny 86 30 69 20.6 57 57 NE 12 19 30.00 1016 10 16 0.00 0.00
6:53 pm 18:53 Sunny 85 29.4 68 20 57 57 NE 13 20 29.99 1016 10 16 0.00 0.00
7:53 pm 19:53 Sunny 80 26.7 68 20 67 67 NE 9 15 29.99 1016 10 16 0.00 0.00
8:53 pm 20:53 Clear 75 23.9 68 20 79 79 NE 6 9 29.99 1016 10 16 0.00 0.00
9:53 pm 21:53 Clear 74 23.3 68 20 82 82 NE 7 11 30.01 1016 10 16 0.00 0.00
10:53 pm 22:53 Clear 74 23.3 67 19.4 79 79 ENE 7 11 30.01 1016 10 16 0.00 0.00
11:53 pm 23:53 Clear 73 22.8 67 19.4 81 81 ENE 5 7 30.01 1016 10 16 0.00 0.00

Powered by AerisWeather